Change the Weather History Date:

Sunday, July 21, 2013

  Actual Average Record
Temperature  
Mean Temperature 73 °F 69 °F  
Max Temperature 93 °F 88 °F 99 °F (1960)
Min Temperature 53 °F 51 °F 37 °F (1949)
Degree Days  
Heating Degree Days 0 1  
Month to date heating degree days 0 25  
Since 1 June heating degree days 100 178  
Since 1 July heating degree days 0 25  
Cooling Degree Days 8 5  
Month to date cooling degree days 164 78  
Year to date cooling degree days 237 110  
Since 1 June cooling degree days 233 108  
Growing Degree Days 22 (Base 50)    
Moisture  
Dew Point 37 °F    
Average Humidity 44    
Maximum Humidity 77    
Minimum Humidity 10    
Precipitation  
Precipitation 0.00 in 0.02 in 0.72 in (1987)
Month to date precipitation 0.30 0.34  
Year to date precipitation 2.24 6.28  
Sea Level Pressure  
Sea Level Pressure 29.80 in    
Wind  
Wind Speed 8 mph (SW)    
Max Wind Speed 17 mph    
Max Gust Speed 23 mph    
Visibility 10 miles    
Events      
T = Trace of Precipitation, MM = Missing Value Source: NWS Daily Summary

Daily Weather History Graph

Daily Weather History Graph

Search for Another Location

Airport or City:

Trip Planner

Search our weather history database for the weather conditions in past years. The results will help you decide how hot, cold, wet, or windy it might be!

Date:

Astronomy

Jul. 21, 2013 Rise Set
Actual Time 6:06 AM MDT 9:02 PM MDT
Civil Twilight 5:32 AM MDT 9:35 PM MDT
Nautical Twilight 4:49 AM MDT 10:18 PM MDT
Astronomical Twilight 3:59 AM MDT 11:08 PM MDT
Moon 8:01 PM MDT (7/21) 4:57 AM MDT (7/21)
Length of Visible Light 16h 02m
Length of Day
14h 55m
Waxing Gibbous, 98% of the Moon is Illuminated
Jul 21
Waxing Gibbous
Jul 22
Full
Jul 29
Last Quarter
Aug 6
New
Aug 14
First Quarter

Hourly Weather History & Observations

Time (MDT) Temp. Dew Point Humidity Pressure Visibility Wind Dir Wind Speed Gust Speed Precip Events Conditions
12:53 AM 62.1 °F 48.0 °F 60% 29.76 in 10.0 mi Calm Calm - N/A   Clear
1:53 AM 59.0 °F 46.9 °F 64% 29.77 in 10.0 mi West 5.8 mph - N/A   Clear
2:53 AM 54.0 °F 46.9 °F 77% 29.79 in 10.0 mi WNW 5.8 mph - N/A   Clear
3:53 AM 53.1 °F 46.0 °F 77% 29.80 in 10.0 mi Calm Calm - N/A   Clear
4:53 AM 59.0 °F 43.0 °F 55% 29.79 in 10.0 mi SSW 6.9 mph - N/A   Clear
5:53 AM 57.9 °F 44.1 °F 60% 29.81 in 10.0 mi SW 10.4 mph - N/A   Clear
6:53 AM 57.9 °F 44.1 °F 60% 29.83 in 10.0 mi Calm Calm - N/A   Clear
7:53 AM 64.0 °F 44.1 °F 48% 29.83 in 10.0 mi WSW 4.6 mph - N/A   Clear
8:53 AM 68.0 °F 46.9 °F 47% 29.86 in 10.0 mi West 3.5 mph - N/A   Clear
9:53 AM 73.9 °F 43.0 °F 33% 29.86 in 10.0 mi SW 6.9 mph - N/A   Clear
10:53 AM 79.0 °F 44.1 °F 29% 29.85 in 10.0 mi West 4.6 mph - N/A   Clear
11:53 AM 81.0 °F 41.0 °F 24% 29.86 in 10.0 mi West 6.9 mph - N/A   Clear
12:53 PM 84.9 °F 39.0 °F 20% 29.85 in 10.0 mi WSW 4.6 mph - N/A   Clear
1:53 PM 86.0 °F 36.0 °F 17% 29.83 in 10.0 mi WNW 3.5 mph - N/A   Clear
2:53 PM 89.1 °F 30.0 °F 12% 29.83 in 10.0 mi WSW 9.2 mph - N/A   Clear
3:53 PM 91.9 °F 26.1 °F 9% 29.82 in 10.0 mi South 8.1 mph - N/A   Clear
4:53 PM 91.0 °F 27.0 °F 10% 29.79 in 10.0 mi SSE 10.4 mph - N/A   Clear
5:53 PM 91.0 °F 26.1 °F 10% 29.78 in 10.0 mi SSE 8.1 mph 16.1 mph N/A   Clear
6:53 PM 91.0 °F 26.1 °F 10% 29.77 in 10.0 mi South 13.8 mph - N/A   Clear
7:53 PM 88.0 °F 28.0 °F 12% 29.75 in 10.0 mi South 11.5 mph - N/A   Clear
8:53 PM 82.9 °F 28.9 °F 14% 29.75 in 10.0 mi South 13.8 mph - N/A   Clear
9:53 PM 81.0 °F 24.1 °F 12% 29.75 in 10.0 mi South 13.8 mph - N/A   Clear
10:53 PM 80.1 °F 25.0 °F 13% 29.75 in 10.0 mi South 15.0 mph - N/A   Clear
11:53 PM 66.9 °F 34.0 °F 30% 29.79 in 10.0 mi SW 10.4 mph - N/A   Clear